Theta_e
317 316 316 315 315 317 316 314 313 313 312 311 312 310 312 312 313 311 311 311 312 312 311 311 312 312 313 310 310 311 310 310 310 310 312 314 312 314 315 313 312 315
316 317 317 315 316 317 316 315 314 313 312 311 311 311 310 311 311 310 311 312 311 310 309 309 310 310 310 309 308 309 308 309 310 312 310 309 307 308 309 310 313 312
316 316 316 315 316 316 315 314 314 313 312 311 311 311 313 311 309 308 310 310 310 309 309 309 308 309 308 308 308 308 308 307 308 307 309 307 306 308 307 309 311 313
316 316 316 316 317 316 316 315 314 314 313 313 312 313 313 312 309 310 312 313 308 307 307 307 307 307 307 306 307 306 305 306 306 307 308 307 307 307 307 308 308 309
317 317 317 317 318 318 317 315 314 314 313 312 312 311 313 310 309 308 307 307 307 307 307 307 306 306 306 305 306 307 307 306 306 306 308 307 306 308 307 307 307 306
317 318 318 318 318 318 316 315 314 314 313 312 311 311 310 310 309 308 308 308 307 307 307 306 306 306 305 305 305 305 305 307 305 306 307 306 305 305 308 306 306 305
317 316 316 317 317 317 315 314 314 313 313 313 312 310 309 308 309 309 309 308 308 308 306 305 305 305 305 304 305 304 304 305 305 306 307 304 305 305 305 305 306 305
316 315 316 316 316 314 314 314 313 313 313 315 313 309 308 309 309 309 309 309 308 308 306 305 305 306 306 304 305 305 305 306 305 305 304 304 304 304 304 306 305 305
316 315 316 315 315 314 314 314 314 313 314 314 312 310 309 309 310 309 310 309 309 309 308 306 306 306 306 305 305 305 305 305 305 304 304 304 304 304 304 304 305 305
316 316 316 315 315 314 314 313 313 314 315 314 313 310 311 310 310 309 308 308 310 309 308 307 307 307 307 306 306 306 306 306 305 304 304 304 304 304 305 304 303 304
316 316 315 315 315 314 314 314 314 314 315 314 312 311 310 310 311 310 309 309 310 309 309 308 308 307 307 307 307 306 306 305 304 304 304 304 304 304 312 304 305 304
315 315 316 315 316 315 315 316 315 315 314 314 313 312 311 311 311 310 310 309 310 310 310 309 308 307 308 308 308 306 306 305 305 305 305 305 305 305 306 304 304 304
316 316 316 316 316 316 315 315 316 315 314 313 313 312 312 311 311 310 310 309 310 310 309 310 310 308 308 308 309 307 307 307 307 308 308 306 306 307 307 306 305 305
316 317 316 316 315 316 316 316 315 313 313 313 312 312 312 312 312 311 309 309 309 309 309 309 309 308 307 308 308 307 307 307 308 308 308 309 308 308 308 308 308 308
316 317 317 317 316 317 316 316 315 314 313 312 311 311 312 310 311 311 310 309 310 309 309 310 310 310 309 309 309 309 308 308 309 308 308 308 310 310 309 309 310 308
314 315 316 316 316 316 315 314 314 314 314 313 313 312 310 309 310 310 311 311 311 309 309 310 311 310 312 309 310 312 310 312 310 309 310 310 310 309 310 310 310 309
313 313 314 313 312 313 313 313 313 312 311 311 311 312 312 311 311 310 310 312 312 312 311 311 311 313 307 302 302 306 313 312 312 311 310 310 310 310 310 309 308 310
312 313 313 312 312 312 313 312 312 312 311 309 308 310 311 310 310 310 310 310 311 311 312 313 312 309 299 299 300 301 308 312 311 311 310 308 310 309 310 308 308 309
314 313 312 313 313 313 311 311 310 310 310 310 309 308 309 309 308 310 308 308 309 309 308 308 310 300 295 296 297 297 301 308 312 311 310 310 310 310 309 309 308 307
314 314 312 311 311 311 311 309 309 307 306 306 307 308 308 308 308 309 309 308 308 308 306 306 309 298 293 295 296 296 296 302 312 311 312 312 311 311 311 310 309 309
305 309 311 311 311 309 308 308 307 306 306 304 305 308 308 307 307 308 309 309 308 306 306 310 308 299 293 294 294 294 294 295 308 310 311 310 310 310 310 310 310 310
300 301 303 307 310 309 308 307 306 306 306 306 304 304 303 303 304 305 305 307 308 307 306 307 306 296 294 294 293 293 293 301 304 305 306 308 309 309 309 309 309 309
298 298 298 299 300 301 301 302 302 302 304 304 304 303 304 305 305 305 305 306 306 305 305 302 304 302 294 293 293 293 296 302 304 304 304 305 308 308 308 308 308 309
297 297 297 296 296 297 298 298 299 299 300 303 304 303 303 302 303 303 302 304 305 306 306 305 304 303 296 293 293 293 296 304 306 305 305 304 305 305 305 305 306 310
297 297 296 296 296 295 296 296 297 298 297 297 300 302 301 301 301 301 301 301 302 303 308 306 304 304 296 294 294 293 295 302 305 305 305 304 304 304 300 300 300 305
296 296 296 296 296 295 296 296 296 296 296 296 296 297 297 297 298 299 301 301 301 301 302 303 303 304 301 294 294 294 294 301 304 305 305 305 303 304 304 299 298 299
Wind_Speed
7 6 7 6 6 6 7 6 4 6 4 4 6 3 5 2 2 4 4 4 4 4 3 3 3 4 3 3 3 3 3 3 3 3 4 5 4 5 5 4 3 4
7 7 6 6 5 4 5 6 5 6 4 3 3 4 2 3 2 3 5 4 4 4 3 3 3 4 3 3 3 4 3 3 4 2 5 4 3 4 4 4 4 3
6 6 7 8 7 6 5 4 5 5 6 4 4 3 3 2 4 3 4 4 4 3 3 3 4 3 3 3 3 3 4 4 4 2 5 4 3 5 3 4 4 4
5 7 7 7 7 7 5 6 4 5 5 6 4 4 4 3 4 4 4 4 4 3 2 2 4 3 3 3 3 4 3 3 2 3 5 3 3 4 4 3 4 3
7 6 6 7 7 7 7 6 6 5 6 6 4 4 5 4 4 4 4 4 4 4 3 3 3 3 3 3 3 4 3 3 2 2 5 4 2 3 3 4 5 4
7 8 8 8 8 8 7 7 6 5 5 5 5 3 4 4 5 4 4 5 3 4 3 2 3 3 3 3 3 3 2 3 2 3 5 4 3 3 2 4 5 5
7 5 6 6 7 7 7 5 5 5 5 5 4 4 4 4 4 4 4 4 4 3 4 3 3 3 2 2 3 2 2 2 3 4 5 3 3 3 2 3 4 4
5 4 5 5 5 4 6 6 6 6 5 5 5 4 4 4 3 3 4 4 4 4 3 3 3 2 1 1 2 1 1 2 3 4 4 3 2 3 3 3 4 5
6 5 5 6 7 6 7 7 6 5 5 6 5 4 3 4 4 3 3 3 4 4 3 3 3 3 1 2 2 2 1 0 2 3 4 3 3 2 3 2 4 4
8 7 8 6 7 6 8 6 6 4 4 5 4 4 4 3 3 4 3 3 4 3 3 3 3 2 1 1 2 2 1 0 0 1 2 2 2 2 1 2 4 4
7 8 8 6 5 4 4 3 4 3 4 5 4 4 4 4 3 3 4 4 5 4 4 4 4 3 3 1 1 2 2 2 1 1 1 2 2 2 2 2 3 3
8 7 8 8 7 6 3 1 1 2 4 4 6 6 5 4 4 4 4 5 5 5 5 4 3 4 4 4 4 3 2 1 1 2 2 2 1 1 2 2 3 3
9 9 8 8 7 5 3 2 2 3 3 5 4 5 5 5 5 5 4 4 5 4 4 4 3 3 3 3 3 3 3 3 2 1 1 1 1 1 2 2 2 3
8 8 8 7 5 2 1 3 3 3 3 4 4 5 4 4 5 4 4 2 2 3 2 2 3 3 2 2 3 3 4 3 3 3 2 1 1 1 1 0 0 1
6 7 8 9 11 9 7 7 5 4 4 4 4 4 4 4 4 4 4 4 2 2 1 1 2 3 3 3 4 3 3 4 4 3 3 3 2 1 0 1 0 1
3 6 8 6 6 8 5 3 2 3 3 4 4 4 4 3 2 2 4 5 4 3 3 3 4 3 5 9 8 6 5 4 3 4 4 4 4 3 1 1 1 0
6 4 4 4 4 6 5 2 3 3 3 2 1 1 3 3 3 3 4 4 5 5 4 5 4 5 8 9 10 10 6 5 6 5 4 4 4 5 5 4 3 1
5 6 6 6 5 4 3 4 3 4 4 3 3 2 0 1 3 2 2 2 1 1 4 7 7 7 8 8 8 7 4 3 3 3 2 5 2 3 5 4 4 2
7 7 6 5 4 4 3 3 4 4 4 4 3 2 3 3 3 3 3 3 4 2 1 2 3 3 7 8 7 9 11 8 4 4 7 9 9 6 5 5 4 4
4 7 6 5 5 5 5 5 4 4 2 2 3 4 4 3 2 1 1 2 3 4 2 0 2 2 5 5 7 9 8 6 4 4 5 6 7 7 6 6 6 5
7 6 5 5 7 7 5 4 3 2 4 4 2 2 4 3 3 3 1 1 3 3 3 3 1 2 6 7 7 5 3 3 2 4 5 4 4 4 5 5 5 5
9 9 8 7 5 4 4 4 3 1 2 0 1 1 2 2 3 4 2 3 3 1 2 1 1 8 10 9 6 5 3 2 2 3 3 5 5 5 5 5 4 5
8 9 9 8 7 7 7 5 5 4 1 0 2 0 0 0 0 1 1 2 4 1 1 1 1 9 4 6 6 5 2 2 3 4 4 4 6 5 5 5 4 5
8 8 9 8 8 8 6 5 5 5 5 2 1 1 1 2 1 1 2 3 3 4 2 2 4 7 7 7 7 8 6 4 4 4 6 6 6 5 5 4 5 8
7 8 8 8 9 8 7 7 6 5 3 4 4 3 2 0 1 1 2 2 3 3 4 4 4 6 8 10 10 9 6 4 4 4 5 6 6 7 4 5 5 6
8 8 8 8 8 7 7 6 5 6 7 5 5 4 4 3 3 2 2 2 1 2 3 3 4 4 6 10 11 10 9 5 2 4 7 7 6 6 6 5 5 6
Wind_Direction
132 134 136 134 139 141 141 134 134 125 130 131 130 153 133 151 75 87 89 93 105 108 111 110 107 95 85 76 75 74 73 97 89 111 113 118 131 145 143 140 142 147
138 137 130 124 121 125 132 136 140 134 141 138 131 129 113 99 68 84 102 103 99 110 117 120 115 115 111 103 96 91 82 97 100 124 115 105 129 127 136 142 140 131
135 133 135 139 142 143 140 141 138 140 138 143 126 122 118 101 98 70 85 110 115 116 120 126 106 99 104 98 85 88 110 112 107 108 104 113 125 119 132 134 130 145
143 144 140 136 138 141 145 135 137 136 131 127 141 140 128 122 107 90 86 98 116 113 109 104 110 93 89 82 81 71 81 86 100 104 91 70 71 110 121 120 116 121
150 144 139 140 146 149 149 146 155 152 142 142 128 134 131 128 114 105 113 112 121 126 109 104 97 98 90 71 77 82 55 76 45 86 98 87 46 99 116 114 123 125
161 156 149 146 151 151 153 157 153 144 138 134 151 143 137 137 131 130 132 132 122 122 108 79 80 65 62 80 71 68 70 76 46 90 85 82 73 50 87 117 123 130
148 139 135 139 146 154 150 147 146 154 156 146 128 147 137 134 137 143 141 140 133 128 122 104 90 73 39 76 81 70 47 77 68 82 90 57 79 68 58 99 98 103
130 113 117 123 129 133 138 154 164 156 154 135 153 154 148 151 156 158 148 140 139 131 114 107 103 101 85 93 104 88 47 52 85 90 93 83 77 81 49 47 84 94
75 88 105 125 137 150 159 164 162 158 156 146 150 154 169 164 171 168 151 138 128 126 122 125 134 141 132 124 128 142 142 50 74 106 118 121 106 97 64 52 80 85
111 118 124 142 149 162 162 162 159 156 135 137 141 143 167 207 176 162 133 124 117 112 140 149 150 157 132 142 162 156 156 115 48 106 115 124 134 128 89 84 104 82
117 128 130 131 126 118 130 136 132 120 131 135 133 158 182 188 214 177 148 137 139 152 169 177 173 160 161 181 206 172 169 168 183 170 172 162 162 164 154 130 105 113
127 126 123 125 117 115 122 85 69 150 158 147 158 172 191 196 195 209 172 168 167 176 178 183 160 165 179 187 194 189 171 172 185 193 205 186 171 173 154 162 142 157
138 138 125 116 117 134 143 121 236 237 173 169 178 172 189 201 210 195 210 179 191 166 173 171 163 172 185 187 178 167 160 160 190 195 195 188 215 203 166 165 169 159
148 135 125 119 116 92 67 278 239 241 210 189 170 177 194 212 208 205 195 186 201 178 185 171 166 169 190 202 169 155 159 174 179 163 161 222 321 356 1 311 221 135
154 148 139 152 156 163 184 208 225 212 188 175 182 194 198 205 206 203 179 191 197 199 180 149 176 193 188 188 182 169 168 177 178 163 158 163 177 238 325 315 273 105
143 146 141 140 152 149 156 175 179 185 175 169 180 195 205 193 166 183 189 184 180 184 175 180 202 205 208 203 193 183 185 188 180 175 170 169 173 184 253 290 287 4
66 47 69 104 115 108 104 99 107 92 83 80 88 135 190 179 143 158 186 180 176 177 186 195 208 214 210 216 217 195 179 184 187 192 183 177 177 179 199 225 259 245
66 67 66 68 74 80 99 119 108 94 93 93 89 94 65 137 150 136 89 61 42 205 198 191 200 207 205 209 220 210 195 193 221 190 62 0 302 204 205 207 224 228
87 83 78 78 71 87 87 73 82 74 63 57 58 48 64 72 94 123 144 130 118 102 342 290 201 185 206 207 206 199 189 179 170 186 150 200 226 217 210 212 211 205
80 102 112 110 98 77 50 36 42 61 64 70 97 64 75 89 95 164 195 134 110 90 119 2 314 253 231 244 240 229 220 190 216 198 197 201 213 216 214 216 207 198
54 62 78 94 94 88 89 89 85 38 46 36 41 114 136 146 157 208 230 326 114 160 186 181 161 191 216 221 237 257 262 245 220 199 210 223 245 244 235 226 214 206
50 57 57 54 55 69 90 96 80 80 99 135 112 66 48 48 19 14 19 274 276 255 263 319 201 207 211 221 222 226 224 249 253 239 211 219 228 232 235 230 219 205
44 54 53 50 52 56 50 45 53 42 359 296 88 40 50 35 156 190 222 300 308 324 318 76 287 284 250 235 232 244 208 230 260 276 267 249 244 243 237 231 218 210
35 43 49 50 48 46 42 36 35 30 40 7 106 142 175 238 199 253 266 238 241 260 232 182 223 265 262 248 232 219 208 214 222 233 251 250 259 262 253 248 239 225
38 38 38 43 46 38 32 34 28 27 6 26 40 53 29 341 182 208 270 260 238 244 218 212 215 224 218 228 232 222 210 227 223 218 240 245 238 250 244 239 249 243
32 36 37 36 35 32 31 34 16 26 24 24 22 24 21 22 25 42 15 314 291 246 247 228 233 247 214 214 217 221 214 226 231 227 243 251 242 237 244 243 244 250